1275350431862,16.2233
1275350491862,16.1790
1275350551862,16.3061
1275350611862,16.2146
1275350671862,16.2094
1275350731862,16.2000
1275350791862,16.1958
1275350851862,16.2154
1275350911862,16.2459
1275350971862,16.2536
1275351031862,16.3008
1275351091862,16.1953
1275351151862,16.2185
1275351211862,16.2004
1275351271862,16.2368
1275351331862,16.2027
1275351391862,16.2998
1275351451862,16.2273
1275351511862,16.3188
1275351571862,16.2444
1275351631862,16.2399
1275351691862,16.2881
1275351751862,16.2725
1275351811862,16.2210
1275351871862,16.2662
1275351931862,16.2216
1275351991862,16.2683
1275352051862,16.2267
1275352111862,16.2652
1275352171862,16.3033
1275352231862,16.2478
1275352291862,16.2689
1275352351862,16.2285
1275352411862,16.2782
1275352471862,16.3081
1275352531862,16.2265
1275352591862,16.2590
1275352651862,16.2433
1275352711862,16.2705
1275352771862,16.2398
1275352831862,16.2663
1275352891862,16.2511
1275352951862,16.2794
1275353011862,16.2562
1275353071862,16.2320
1275353131862,16.2001
1275353191862,16.2543
1275353251862,16.2595
1275353311862,16.2518
1275353371862,16.2623
1275353431862,16.2779
1275353491862,16.3016
1275353551862,16.2714
1275353611862,16.2874
1275353671862,16.2749
1275353731862,16.2380
1275353791862,16.2315
1275353851862,16.2789
1275353911862,16.1821
1275353971862,16.3163
1275354031873,16.2562
1275354091873,16.2512
1275354151873,16.2427
1275354211873,16.2308
1275354271873,16.2438
1275354331873,16.2982
1275354391873,16.2542
1275354451873,16.3061
1275354511873,16.3070
1275354571873,16.2388
1275354631873,16.3146
1275354691873,16.2632
1275354751873,16.2406
1275354811873,16.2428
1275354871873,16.2579
1275354931873,16.2574
1275354991873,16.2231
1275355051873,16.3078
1275355111873,16.2166
1275355171873,16.1815
1275355231873,16.1978
1275355291873,16.2845
1275355351873,16.1513
1275355411873,16.2542
1275355471873,16.2736
1275355531873,16.2479
1275355591873,16.2494
1275355651873,16.2256
1275355711873,16.1610
1275355771873,16.2517
1275355831873,16.2112
1275355891873,16.2410
1275355951873,16.2691
1275356011873,16.2917
1275356071873,16.2185
1275356131873,16.2322
1275356191873,16.3277
1275356251873,16.2697
1275356311873,16.2293
1275356371873,16.2679
1275356431873,16.2258
1275356491873,16.2525
1275356551873,16.2358
1275356611873,16.3310
1275356671873,16.2197
1275356731873,16.2030
1275356791873,16.2583
1275356851873,16.2193
1275356911873,16.2473
1275356971873,16.2657
1275357031873,16.2653
1275357091873,16.2480
1275357151873,16.2991
1275357211873,16.3286
1275357271873,16.3087
1275357331873,16.3021
1275357391873,16.2767
1275357451873,16.2944
1275357511873,16.2796
1275357571873,16.2418
1275357631883,16.2954
1275357691883,16.3462
1275357751883,16.2972
1275357811883,16.3130
1275357871883,16.3003
1275357931883,16.3606
1275357991883,16.3331
1275358051883,16.2901
1275358111883,16.3175
1275358171883,16.3520
1275358231883,16.2859
1275358291883,16.3228
1275358351883,16.3276
1275358411883,16.3271
1275358471883,16.2979
1275358531883,16.2930
1275358591883,16.3432
1275358651883,16.3050
1275358711883,16.3127
1275358771883,16.3185
1275358831883,16.3449
1275358891883,16.3093
1275358951883,16.3243
1275359011883,16.3008
1275359071883,16.3646
1275359131883,16.3008
1275359191883,16.2947
1275359251883,16.2526
1275359311883,16.2949
1275359371883,16.2986
1275359431883,16.2835
1275359491883,16.3217
1275359551883,16.2772
1275359611883,16.2490
1275359671883,16.3258
1275359731883,16.2727
1275359791883,16.2428
1275359851883,16.2798
1275359911883,16.2766
1275359971883,16.2623
1275360031883,16.2451
1275360091883,16.2453
1275360151883,16.2704
1275360211883,16.3083
1275360271883,16.3289
1275360331883,16.3441
1275360391883,16.2938
1275360451883,16.2736
1275360511883,16.2803
1275360571883,16.2333
1275360631883,16.2742
1275360691883,16.2857
1275360751883,16.3209
1275360811883,16.2801
1275360871883,16.2428
1275360931883,16.2157
1275360991883,16.2504
1275361051883,16.2051
1275361111883,16.2361
1275361171883,16.2290
1275361231893,16.2508
1275361831893,16.2838
1275361891893,16.2285
1275361951893,16.2548
1275362011893,16.2495
1275362071893,16.2261
1275362131893,16.2540
1275362191893,16.2413
1275362251893,16.2208
1275362311893,16.2378
1275362371893,16.1951
1275362431893,16.1949
1275362491893,16.2197
1275362551893,16.2329
1275362611893,16.2087
1275362671893,16.2232
1275362731893,16.2246
1275362791893,16.2058
1275362851893,16.1675
1275362911893,16.1707
1275362971893,16.1644
1275363031893,16.1667
1275363091893,16.1529
1275363151893,16.1762
1275363211893,16.1738
1275363271893,16.1728
1275363331893,16.1618
1275363391893,16.1361
1275363451893,16.2370
1275363511893,16.1563
1275363571893,16.2623
1275363631893,16.1430
1275363691893,16.2024
1275363751893,16.1982
1275363811893,16.2281
1275363871893,16.2286
1275363931893,16.1626
1275363991893,16.2261
1275364051893,16.1955
1275364111893,16.2829
1275364171893,16.2792
1275364231893,16.2356
1275364291893,16.2516
1275364351893,16.2699
1275364411893,16.2087
1275364471893,16.1949
1275364531893,16.2322
1275364591893,16.2177
1275364651893,16.1840
1275364711893,16.1263
1275364771893,16.1735
1275364831903,16.1064
1275364891903,16.1690
1275364951903,16.1480
1275365011903,16.1780
1275365071903,16.1769
1275365131903,16.1560
1275365191903,16.2232
1275365251903,16.2072
1275365311903,16.1872
1275365371903,16.2093
1275365431903,16.2124
1275365491903,16.1744
1275365551903,16.1902
1275365611903,16.1617
1275365671903,16.1391
1275365731903,16.1875
1275365791903,16.1747
1275365851903,16.1951
1275365911903,16.1801
1275365971903,16.1739
1275366031903,16.1705
1275366091903,16.1889
1275366151903,16.1530
1275366211903,16.1666
1275366271903,16.2051
1275366331903,16.1958
1275366391903,16.1993
1275366451903,16.1625
1275366511903,16.2000
1275366571903,16.1941
1275366631903,16.2690
1275366691903,16.2021
1275366751903,16.1592
1275366811903,16.2080
1275366871903,16.1553
1275366931903,16.1948
1275366991903,16.1639
1275367051903,16.1893
1275367111903,16.1606
1275367171903,16.1787
1275367231903,16.0556
1275367291903,16.1324
1275367351903,16.1831
1275367411903,16.1101
1275367471903,16.1656
1275367531903,16.1634
1275367591903,16.1574
1275367651903,16.2010
1275367711903,16.1205
1275367771903,16.1505
1275367831903,16.1439
1275367891903,16.1898
1275367951903,16.1232
1275368011903,16.1931
1275368071903,16.0953
1275368131903,16.2079
1275368191903,16.1811
1275368251903,16.1558
1275368311903,16.1361
1275368371903,16.2403
1275368431912,16.1625
1275368491912,16.1443
1275368551912,16.1661
1275368611912,16.1865
1275368671912,16.1469
1275368731912,16.2343
1275368791912,16.2305
1275368851912,16.1826
1275368911912,16.1326
1275368971912,16.1501
1275369031912,16.1737
1275369091912,16.1654
1275369151912,16.1967
1275369211912,16.1566
1275369271912,16.1791
1275369331912,16.1268
1275369391912,16.2070
1275369451912,16.2654
1275369511912,16.2121
1275369571912,16.1919
1275369631912,16.2663
1275369691912,16.2428
1275369751912,16.2202
1275369811912,16.2150
1275369871912,16.2379
1275369931912,16.1771
1275369991912,16.1556
1275370051912,16.1804
1275370111912,16.1939
1275370171912,16.2045
1275370231912,16.1616
1275370291912,16.2415
1275370351912,16.1778
1275370411912,16.2123
1275370471912,16.2348
1275370531912,16.2034
1275370591912,16.2458
1275370651912,16.1754
1275370711912,16.2768
1275370771912,16.2460
1275370831912,16.2551
1275370891912,16.2875
1275370951912,16.2270
1275371011912,16.2176
1275371071912,16.2643
1275371131912,16.1697
1275371191912,16.1861
1275371251912,16.1930
1275371311912,16.2526
1275371371912,16.1620
1275371431912,16.2156
1275371491912,16.1827
1275371551912,16.2137
1275371611912,16.2431
1275371671912,16.1917
1275371731912,16.2851
1275371791912,16.2172
1275371851912,16.2555
1275371911912,16.2223
1275371971912,16.2680
1275372031922,16.2429
1275372091922,16.2264
1275372151922,16.1944
1275372211922,16.2386
1275372271922,16.2284
1275372331922,16.2051
1275372391922,16.2149
1275372451922,16.2060
1275372511922,16.2783
1275372571922,16.2566
1275372631922,16.2264
1275372691922,16.2406
1275372751922,16.2931
1275372811922,16.2617
1275372871922,16.2378
1275372931922,16.2741
1275372991922,16.3131
1275373051922,16.2834
1275373111922,16.2000
1275373171922,16.2684
1275373231922,16.3355
1275373291922,16.2912
1275373351922,16.2759
1275373411922,16.2235
1275373471922,16.2272
1275373531922,16.2562
1275373591922,16.3029
1275373651922,16.2405
1275373711922,16.2705
1275373771922,16.2169
1275373831922,16.2392
1275373891922,16.3103
1275373951922,16.2553
1275374011922,16.3224
1275374071922,16.2214
1275374131922,16.2776
1275374191922,16.2554
1275374251922,16.2925
1275374311922,16.3191
1275374371922,16.2697
1275374431922,16.3152
1275374491922,16.2998
1275374551922,16.2435
1275374611922,16.2412
1275374671922,16.2196
1275374731922,16.2100
1275374791922,16.2586
1275374851922,16.3089
1275374911922,16.1879
1275374971922,16.4647
1275375031922,16.1923
1275375091922,16.2555
1275375151922,16.2743
1275375211922,16.2428
1275375271922,16.2639
1275375331922,16.2698
1275375391922,16.2759
1275375451922,16.2902
1275375511922,16.3043
1275375571922,16.2709
1275375631931,16.2617
1275375691931,16.1966
1275375751931,16.3217
1275375811931,16.3019
1275375871931,16.2909
1275375931931,16.2869
1275375991931,16.2929
1275376051931,16.3043
1275376111931,16.3086
1275376171931,16.3397
1275376231931,16.3600
1275376291931,16.2939
1275376351931,16.2985
1275376411931,16.2221
1275376471931,16.3078
1275376531931,16.3059
1275376591931,16.3129
1275376651931,16.2898
1275376711931,16.3446
1275376771931,16.3301
1275376831931,16.2428
1275376891931,16.2779
1275376951931,16.2118
1275377011931,16.2560
1275377071931,16.3354
1275377131931,16.3129
1275377191931,16.2997
1275377251931,16.2289
1275377311931,16.2248
1275377371931,16.1943
1275377431931,16.2710
1275377491931,16.2892
1275377551931,16.2891
1275377611931,16.2764
1275377671931,16.2844
1275377731931,16.3375
1275377791931,16.3286
1275377851931,16.2788
1275377911931,16.3288
1275377971931,16.3223
1275378031931,16.2572
1275378091931,16.2553
1275378151931,16.2594
1275378211931,16.3223
1275378271931,16.2412
1275378331931,16.2582
1275378391931,16.2537
1275378451931,16.2606
1275378511931,16.2392
1275378571931,16.3162
1275378631931,16.2223
1275378691931,16.2457
1275378751931,16.1563
1275378811931,16.2709
1275378871931,16.2561
1275378931931,16.2585
1275378991931,16.2701
1275379051931,16.2938
1275379111931,16.3302
1275379171931,16.2307
1275379231940,16.2561
1275379291940,16.2772
1275379351940,16.2999
1275379411940,16.2168
1275379471940,16.3306
1275379531940,16.2694
1275379591940,16.2077
1275379651940,16.2963
1275379711940,16.3447
1275379771940,16.2649
1275379831940,16.3109
1275379891940,16.2994
1275379951940,16.3399
1275380011940,16.3283
1275380071940,16.2550
1275380131940,16.3002
1275380191940,16.2818
1275380251940,16.2719
1275380311940,16.2925
1275380371940,16.2992
1275380431940,16.2413
1275380491940,16.2103
1275380551940,16.2101
1275380611940,16.2191
1275380671940,16.1731
1275380731940,16.2383
1275380791940,16.2100
1275380851940,16.2458
1275380911940,16.2231
1275380971940,16.2526
1275381031940,16.2383
1275381091940,16.1903
1275381151940,16.2942
1275381211940,16.2506
1275381271940,16.2592
1275381331940,16.2013
1275381391940,16.2858
1275381451940,16.2673
1275381511940,16.3237
1275381571940,16.2381
1275381631940,16.2231
1275381691940,16.2383
1275381751940,16.1736
1275381811940,16.3016
1275381871940,16.3064
1275381931940,16.2916
1275381991940,16.2303
1275382051940,16.2570
1275382111940,16.2701
1275382171940,16.2662
1275382231940,16.2961
1275382291940,16.2570
1275382351940,16.2663
1275382411940,16.2898
1275382471940,16.2236
1275382531940,16.2783
1275382591940,16.2090
1275382651940,16.3193
1275382711940,16.2948
1275382771940,16.3676
1275382831949,16.2748
1275382891949,16.3515
1275382951949,16.3028
1275383011949,16.2792
1275383071949,16.3087
1275383131949,16.2527
1275383191949,16.2865
1275383251949,16.2659
1275383311949,16.2718
1275383371949,16.2042
1275383431949,16.2469
1275383491949,16.2394
1275383551949,16.2401
1275383611949,16.2730
1275383671949,16.2451
1275383731949,16.2234
1275383791949,16.2204
1275383851949,16.2716
1275383911949,16.2636
1275383971949,16.2530
1275384031949,16.2404
1275384091949,16.2317
1275384151949,16.2100
1275384211949,16.2790
1275384271949,16.3020
1275384331949,16.2635
1275384391949,16.2539
1275384451949,16.2542
1275384511949,16.2469
1275384571949,16.1769
1275384631949,16.2380
1275384691949,16.2344
1275384751949,16.1952
1275384811949,16.1711
1275384871949,16.2670
1275384931949,16.2497
1275384991949,16.2650
1275385051949,16.2013
1275385111949,16.2193
1275385171949,16.2590
1275385231949,16.2011
1275385291949,16.2704
1275385351949,16.1864
1275385411949,16.2015
1275385471949,16.2361
1275385531949,16.2042
1275385591949,16.1921
1275385651949,16.2576
1275385711949,16.1951
1275385771949,16.2764
1275385831949,16.1850
1275385891949,16.2074
1275385951949,16.2133
1275386011949,16.2469
1275386071949,16.1788
1275386131949,16.1625
1275386191949,16.2449
1275386251949,16.2775
1275386311949,16.2260
1275386371949,16.2280
1275386431958,16.3061
1275386491958,16.2542
1275386551958,16.2034
1275386611958,16.2092
1275386671958,16.2082
1275386731958,16.1760
1275386791958,16.2409
1275386851958,16.2278
1275386911958,16.2308
1275386971958,16.1893
1275387031958,16.2407
1275387091958,16.2300
1275387151958,16.2340
1275387211958,16.2384
1275387271958,16.2317
1275387331958,16.2845
1275387391958,16.2442
1275387451958,16.2702
1275387511958,16.2425
1275387571958,16.1753
1275387631958,16.1810
1275387691958,16.2272
1275387751958,16.2595
1275387811958,16.2430
1275387871958,16.2799
1275387931958,16.2914
1275387991958,16.2574
1275388051958,16.2171
1275388111958,16.2906
1275388171958,16.2042
1275388231958,16.2535
1275388291958,16.2579
1275388351958,16.2470
1275388411958,16.2672
1275388471958,16.3077
1275388531958,16.2958
1275388591958,16.2640
1275388651958,16.3100
1275388711958,16.2603
1275388771958,16.2421
1275388831958,16.1745
1275388891958,16.2683
1275388951958,16.1882
1275389011958,16.2488
1275389071958,16.1804
1275389131958,16.2452
1275389191958,16.2434
1275389251958,16.2465
1275389311958,16.2267
1275389371958,16.2443
1275389431958,16.3308
1275389491958,16.1995
1275389551958,16.1791
1275389611958,16.1588
1275389671958,16.2007
1275389731958,16.1796
1275389791958,16.1746
1275389851958,16.1410
1275389911958,16.2002
1275389971958,16.1902
1275390031967,16.1911
1275390091967,16.2024
1275390151967,16.1670
1275390211967,16.1960
1275390271967,16.1901
1275390331967,16.2552
1275390391967,16.2320
1275390451967,16.2054
1275390511967,16.2367
1275390571967,16.2237
1275390631967,16.2336
1275390691967,16.1997
1275390751967,16.2233
1275390811967,16.2117
1275390871967,16.2394
1275390931967,16.2472
1275390991967,16.2327
1275391051967,16.1592
1275391111967,16.2116
1275391171967,16.2226
1275391231967,16.1955
1275391291967,16.2194
1275391351967,16.1977
1275391411967,16.2571
1275391471967,16.1340
1275391531967,16.1942
1275391591967,16.2303
1275391651967,16.2201
1275391711967,16.2826
1275391771967,16.1705
1275391831967,16.2186
1275391891967,16.2580
1275391951967,16.2215
1275392011967,16.1986
1275392071967,16.1972
1275392131967,16.2039
1275392191967,16.2361
1275392251967,16.2306
1275392311967,16.2028
1275392371967,16.1781
1275392431967,16.2202
1275392491967,16.2145
1275392551967,16.1830
1275392611967,16.2667
1275392671967,16.2041
1275392731967,16.2298
1275392791967,16.2382
1275392851967,16.2427
1275392911967,16.2242
1275392971967,16.2331
1275393031967,16.2422
1275393091967,16.1876
1275393151967,16.2176
1275393211967,16.2505
1275393271967,16.1858
1275393331967,16.2387
1275393391967,16.2741
1275393451967,16.2427
1275393511967,16.2031
1275393571967,16.2408
1275393631976,16.2288
1275393691976,16.1603
1275393751976,16.2286
1275393811976,16.2209
1275393871976,16.2794
1275393931976,16.2181
1275393991976,16.2386
1275394051976,16.2551
1275394111976,16.2814
1275394171976,16.2120
1275394231976,16.1922
1275394291976,16.2261
1275394351976,16.1599
1275394411977,16.1869
1275394471977,16.2131
1275394531977,16.1923
1275394591976,16.1702
1275394651976,16.1687
1275394711976,16.2563
1275394771976,16.2751
1275394831976,16.2488
1275394891976,16.2513
1275394951976,16.1973
1275395011976,16.1934
1275395071976,16.1680
1275395131976,16.1498
1275395191976,16.1327
1275395251976,16.1880
1275395311976,16.2141
1275395371976,16.2121
1275395431976,16.2020
1275395491976,16.2174
1275395551976,16.1441
1275395611976,16.2142
1275395671976,16.1651
1275395731976,16.1346
1275395791977,16.2701
1275395851977,16.2094
1275395911976,16.2437
1275395971976,16.2879
1275396031976,16.2649
1275396091976,16.2129
1275396151976,16.2198
1275396211976,16.1840
1275396271976,16.2097
1275396331976,16.2493
1275396391976,16.2164
1275396451976,16.2503
1275396511976,16.2466
1275396571976,16.2013
1275396631976,16.2132
1275396691976,16.2236
1275396751976,16.1899
1275396811976,16.2492
1275396871976,16.2884
1275396931976,16.2790
1275396991976,16.3036
1275397051976,16.3054
1275397111977,16.2440
1275397171977,16.2879
1275397231986,16.3235
1275397291986,16.2764
1275397351986,16.2396
1275397411986,16.1840
1275397471986,16.2294
1275397531986,16.2642
1275397591986,16.1754
1275397651986,16.2264
1275397711986,16.1780
1275397771986,16.1433
1275397831986,16.1342
1275397891986,16.2290
1275397951986,16.1833
1275398011986,16.2489
1275398071986,16.2204
1275398131986,16.1838
1275398191986,16.2087
1275398251986,16.1513
1275398311986,16.2446
1275398371986,16.1178
1275398431986,16.1798
1275398491986,16.1918
1275398551986,16.2302
1275398611986,16.2519
1275398671986,16.2385
1275398731986,16.2314
1275398791986,16.2431
1275398851986,16.1820
1275398911986,16.2590
1275398971986,16.2158
1275399031986,16.2263
1275399091986,16.1656
1275399151986,16.2264
1275399211986,16.2488
1275399271986,16.1798
1275399331986,16.1651
1275399391986,16.1655
1275399451986,16.2276
1275399511986,16.2176
1275399571986,16.2488
1275399631986,16.2723
1275399691986,16.2703
1275399751986,16.2929
1275399811986,16.2159
1275399871986,16.2537
1275399931986,16.2133
1275399991986,16.2704
1275400051986,16.3023
1275400111986,16.2472
1275400171986,16.2258
1275400231986,16.2464
1275400291986,16.3121
1275400351986,16.2543
1275400411986,16.2801
1275400471986,16.2791
1275400531986,16.2251
1275400591986,16.2642
1275400651986,16.2003
1275400711986,16.2927
1275400771986,16.2845
1275400831995,16.2386
1275400891995,16.3066
1275400951995,16.2201
1275401011995,16.3453
1275401071995,16.2571
1275401131995,16.2917
1275401191995,16.2385
1275401251995,16.2932
1275401311995,16.2591
1275401371995,16.2047
1275401431995,16.2853
1275401491995,16.3232
1275401551995,16.2464
1275401611995,16.2691
1275401671995,16.2666
1275401731995,16.1503
1275401791995,16.1886
1275401851995,16.2371
1275401911995,16.2505
1275401971995,16.2293
1275402031995,16.2515
1275402091995,16.2764
1275402151995,16.2425
1275402211995,16.2612
1275402271995,16.2193
1275402331995,16.3008
1275402391995,16.2837
1275402451995,16.2890
1275402511995,16.2772
1275402571995,16.2088
1275402631995,16.2380
1275402691995,16.2297
1275402751995,16.2657
1275402811995,16.1803
1275402871995,16.1921
1275402931995,16.1841
1275402991995,16.2283
1275403051995,16.2290
1275403111995,16.2875
1275403171995,16.1973
1275403231995,16.1697
1275403291995,16.1878
1275403351995,16.2084
1275403411995,16.2263
1275403471995,16.2243
1275403531995,16.2564
1275403591995,16.2403
1275403651995,16.2615
1275403711995,16.2977
1275403771995,16.2258
1275403831995,16.1969
1275403891995,16.2370
1275403951995,16.2516
1275404011995,16.2992
1275404071995,16.2784
1275404131995,16.3560
1275404191995,16.3774
1275404251995,16.2895
1275404311995,16.4157
1275404371995,16.3317
1275404431979,16.3081
1275404491979,16.2844
1275404551979,16.3287
1275404611979,16.3210
1275404671979,16.3271
1275404731979,16.2970
1275404791979,16.3186
1275404851979,16.3133
1275404911979,16.3201
1275404971979,16.3476
1275405031979,16.3146
1275405091979,16.2994
1275405151979,16.3716
1275405211979,16.3485
1275405271979,16.3022
1275405331979,16.3031
1275405391979,16.3687
1275405451979,16.3240
1275405511979,16.3277
1275405571979,16.3071
1275405631979,16.2363
1275405691979,16.3126
1275405751979,16.4077
1275405811979,16.3356
1275405871979,16.3347
1275405931979,16.3500
1275405991979,16.3784
1275406051979,16.3008
1275406111979,16.3568
1275406171979,16.2937
1275406231979,16.2894
1275406291979,16.3369
1275406351979,16.2600
1275406411979,16.3130
1275406471979,16.3842
1275406531979,16.3905
1275406591979,16.3690
1275406651979,16.3957
1275406711979,16.3716
1275406771979,16.3251
1275406831979,16.2928
1275406891979,16.3535
1275406951979,16.3390
1275407011979,16.3133
1275407071979,16.3903
1275407131979,16.3759
1275407191979,16.3380
1275407251979,16.2998
1275407311979,16.2567
1275407371979,16.2793
1275407431979,16.3153
1275407491979,16.3351
1275407551979,16.3076
1275407611979,16.3522
1275407671979,16.3447
1275407731979,16.3486
1275407791979,16.3894
1275407851979,16.3425
1275407911979,16.3238
1275407971979,16.3381
1275408031987,16.3848
1275408091987,16.2178
1275408151987,16.2714
1275408211987,16.3169
1275408271987,16.3682
1275408331987,16.3402
1275408391987,16.3866
1275408451987,16.3496
1275408511987,16.4257
1275408571987,16.4064
1275408631987,16.3530
1275408691987,16.3497
1275408751987,16.3365
1275408811987,16.3924
1275408871987,16.3380
1275408931987,16.4538
1275408991987,16.3237
1275409051987,16.3506
1275409111987,16.3933
1275409171987,16.3198
1275409231987,16.3279
1275409291987,16.3142
1275409351987,16.3463
1275409411987,16.3826
1275409471987,16.3275
1275409531987,16.4031
1275409591987,16.3348
1275409651987,16.3380
1275409711987,16.3473
1275409771988,16.3607
1275409831987,16.3398
1275409891987,16.3567
1275409951987,16.4363
1275410011987,16.4391
1275410071987,16.3875
1275410131987,16.3689
1275410191987,16.2849
1275410251987,16.3003
1275410311987,16.2921
1275410371987,16.3497
1275410431987,16.2981
1275410491987,16.3228
1275410551987,16.3005
1275410611987,16.2280
1275410671987,16.3445
1275410731987,16.3094
1275410791987,16.3193
1275410851987,16.3417
1275410911987,16.3396
1275410971987,16.2971
1275411031987,16.3204
1275411091987,16.2956
1275411151987,16.2930
1275411211987,16.3662
1275411271987,16.3391
1275411331987,16.3581
1275411391987,16.3171
1275411451987,16.3339
1275411511987,16.3431
1275411571987,16.3531
1275411631997,16.3161
1275411691997,16.3238
1275411751997,16.3691
1275411811997,16.3139
1275411871997,16.3216
1275411931997,16.4067
1275411991997,16.3011
1275412051997,16.3249
1275412111997,16.3143
1275412171997,16.3762
1275412231997,16.3130
1275412291997,16.3046
1275412351997,16.3003
1275412411997,16.3594
1275412471997,16.3788
1275412531997,16.3029
1275412591997,16.3174
1275412651997,16.2340
1275412711997,16.3266
1275412771997,16.2522
1275412831997,16.2928
1275412891997,16.2223
1275412951997,16.3365
1275413011997,16.3181
1275413071997,16.3262
1275413131997,16.2917
1275413191997,16.3055
1275413251997,16.2313
1275413311997,16.2681
1275413371997,16.1786
1275413431997,16.2911
1275413491997,16.2258
1275413551997,16.2471
1275413611997,16.2737
1275413671997,16.2372
1275413731997,16.2255
1275413791997,16.2539
1275413851997,16.2794
1275413911997,16.3409
1275413971997,16.2039
1275414031997,16.2580
1275414091997,16.2376
1275414151997,16.2631
1275414211997,16.2365
1275414271997,16.2856
1275414331997,16.2117
1275414391997,16.3095
1275414451997,16.2650
1275414511997,16.2873
1275414571997,16.2008
1275414631997,16.2444
1275414691997,16.2792
1275414751997,16.3370
1275414811997,16.2940
1275414871997,16.3140
1275414931997,16.2488
1275414991997,16.2344
1275415051997,16.1926
1275415111997,16.1822
1275415171997,16.2145
1275415232006,16.3052
1275415292006,16.2668
1275415352006,16.2360
1275415412006,16.2347
1275415472006,16.2560
1275415532006,16.2772
1275415592006,16.1820
1275415652006,16.1987
1275415712006,16.2767
1275415772006,16.1839
1275415832006,16.1974
1275415892006,16.2607
1275415952006,16.2390
1275416012006,16.2875
1275416072006,16.2699
1275416132006,16.2449
1275416192006,16.2312
1275416252006,16.2254
1275416312006,16.3320